User: anonymous
Location: NJAA Observatory
(40.6819°N, 74.8979°W)
Time: 21:34:59
(UTC-04:00)
Language:

Iridium 4 - Orbit

View from above orbital plane
View from above orbital plane
View from above satellite
View from above satellite

Ground track
Ground track

The orbit data is extracted from the following two-line orbital elements,

1 24796U 97020E   14234.50288711  .00000170  00000-0  53187-4 0  9695
2 24796 086.3967 028.8242 0002124 110.6809 311.2587 14.34676563905645
Epoch (UTC): 22 August 2014 12:04:09
Eccentricity: 0.0002124
inclination: 86.3967°
perigee height: 774 km
apogee height: 777 km
right ascension of ascending node: 28.8242°
argument of perigee: 110.6809°
revolutions per day: 14.34676563
mean anomaly at epoch: 311.2587°
orbit number at epoch: 90564

The dashed part of the orbit path shows where the satellite is in the earth's shadow,  

DLR